Zurück zum Katalog

ONEWEB-0495

AktivKommunikationPO
NORAD 54115·PAYLOAD·🇬🇧 United Kingdom

Gestartet Oct 22, 2022 von Satish Dhawan Space Centre

Loading…

Nächste Überflüge (nächste 24 Stunden)

TLE

AktuellSource: CelesTrak SupGP

Epoche: Sep 14, 2026, 15:00 UTC

1 54115C 22138C   26257.62550185 -.00000665  00000+0 -16635-2 0  2574
2 54115  87.9109 287.1520 0002183  76.6527  37.1274 13.19729446    15

Verfolge ONEWEB-0495 in Echtzeit mit AllMySat

Download on the App Store